Location: Newark
(48.8604°N, 2.3376°E)
Time: 21:04:44
(UTC+00:00)

N. Korean satellite - Pass Details

Date: 04 October 2021
Orbit: 450 x 495 km, 97.3° (Epoch: 25 October)

Event Time Altitude Azimuth Distance (km) Brightness Sun altitude
Rises 03:59:55 0° 32° (NNE) 2,561 11.0 -19.5°
Reaches altitude 10° 04:03:05 10° 63° (ENE) 1,683 10.5 -19.0°
Maximum altitude 04:04:40 12° 89° (E) 1,538 10.2 -18.8°
Drops below altitude 10° 04:06:15 10° 115° (ESE) 1,684 10.0 -18.5°
Sets 04:09:25 0° 146° (SE) 2,565 10.5 -18.0°
